This is the latest recevied weather packets stored in our database for station/object DO7ZT-13. If no packets are shown the sender has not sent any weather packets the latest 10 day(s).
| Time | Temp. | Humidity | Pressure | Rain* | Wind** | Luminosity | Snow |
|---|---|---|---|---|---|---|---|
| 1777905322 | 22.78° C | 40% | 1011.7 hPa | 0 mm | 0.45 m/s, 64° | - | - |
| 1777905009 | 22.78° C | 41% | 1011.8 hPa | 0 mm | 0 m/s | - | - |
| 1777904735 | 23.89° C | 40% | 1011.8 hPa | 0 mm | 0.45 m/s, 50° | - | - |
| 1777904422 | 22.78° C | 38% | 1011.8 hPa | 0 mm | 0 m/s | - | - |
| 1777904110 | 22.78° C | 39% | 1011.9 hPa | 0 mm | 0.45 m/s, 48° | - | - |
| 1777903821 | 22.78° C | 41% | 1011.9 hPa | 0 mm | 0.45 m/s, 36° | - | - |
| 1777903509 | 23.89° C | 38% | 1011.9 hPa | 0 mm | 0.89 m/s, 336° | - | - |
| 1777903222 | 22.78° C | 40% | 1012 hPa | 0 mm | 0 m/s | - | - |
| 1777902909 | 22.78° C | 39% | 1012 hPa | 0 mm | 0.89 m/s, 18° | - | - |
| 1777902622 | 22.78° C | 40% | 1012 hPa | 0 mm | 0.45 m/s, 324° | - | - |
| 1777902309 | 22.78° C | 40% | 1012 hPa | 0 mm | 0.89 m/s, 60° | - | - |
| 1777902021 | 23.89° C | 39% | 1012 hPa | 0 mm | 0.89 m/s, 0° | - | - |
| 1777901709 | 22.78° C | 39% | 1012 hPa | 0 mm | 0.89 m/s, 342° | - | - |
| 1777901422 | 22.78° C | 39% | 1012.2 hPa | 0 mm | 0.45 m/s, 307° | - | - |
| 1777901109 | 22.78° C | 39% | 1012.2 hPa | 0 mm | 0.89 m/s, 0° | - | - |
| 1777900821 | 22.78° C | 40% | 1012.2 hPa | 0 mm | 0.89 m/s, 71° | - | - |
| 1777900509 | 23.89° C | 36% | 1012.3 hPa | 0 mm | 0.45 m/s, 173° | - | - |
| 1777900222 | 23.89° C | 36% | 1012.3 hPa | 0 mm | 0.45 m/s, 234° | - | - |
| 1777899909 | 22.78° C | 37% | 1012.3 hPa | 0 mm | 0 m/s | - | - |
| 1777899621 | 22.78° C | 37% | 1012.4 hPa | 0 mm | 0 m/s | - | - |
| 1777899309 | 22.78° C | 38% | 1012.4 hPa | 0 mm | 0 m/s | - | - |
| 1777899022 | 22.78° C | 38% | 1012.4 hPa | 0 mm | 0.45 m/s, 173° | - | - |
| 1777898709 | 22.78° C | 37% | 1012.5 hPa | 0 mm | 0.45 m/s, 246° | - | - |
| 1777898422 | 23.89° C | 38% | 1012.5 hPa | 0 mm | 0.89 m/s, 252° | - | - |
| 1777898109 | 22.78° C | 38% | 1012.5 hPa | 0 mm | 0.45 m/s, 294° | - | - |
* Rain latest hour (hover to see other rain measurements)
** Current wind speed in m/s (hover to see current wind gust speed)